Terug naar catalogus

STARLINK-36205

ActiefCommunicatieVLEO
NORAD 67098·PAYLOAD·🇺🇸 United States

Gelanceerd Dec 14, 2025 vanaf Vandenberg Space Force Base

Loading…

Volgende Passages (komende 24 uur)

TLE

VersSource: CelesTrak SupGP

Epoch: Sep 15, 2026, 03:28 UTC

1 67098C 25298Z   26258.14493056 -.00043602  00000+0 -36537-2 0  2581
2 67098  69.9993 256.7234 0003910 268.0724 219.6164 14.98353870    16

Volg STARLINK-36205 in realtime met AllMySat

Download on the App Store